SCP
-0 0 0 0 0 0 -0 -0 0 0 0 -0 -0 -0 0 0 0 0 0 0 0 0 0 0 0 0 -0 -0 -0 0 0 0 0 -0 -0 -0 -0 0 -0 0 -0 0 -0
0 0 0 0 0 0 0 0 0 0 0 0 0 0 0 -0 0 0 0 0 0 0 0 0 0 0 0 0 -0 -0 -0 0 0 0 0 -0 0 0 0 -0 -0 -0 -0
0 0 0 0 0 0 0 0 0 0 0 0 0 0 0 0 0 0 0 0 0 0 0 0 0 0 0 0 -0 0 0 0 0 -0 0 0 0 0 0 0 0 0 -0
0 0 0 0 0 0 0 0 0 0 0 0 0 0 0 0 0 0 0 0 0 0 0 0 0 0 0 0 0 0 0 0 0 0 0 0 0 0 0 0 0 0 0
0 0 0 0 0 0 0 0 0 0 0 0 0 0 0 0 0 0 0 0 0 0 0 0 0 0 0 0 0 0 0 0 0 0 0 0 0 0 0 0 0 0 0
0 0 0 0 0 1 1 0 0 0 0 0 0 1 0 0 0 0 0 0 0 0 0 0 0 0 0 0 0 0 0 0 0 0 0 0 0 0 0 0 0 0 0
0 0 0 0 1 1 1 1 1 0 0 1 1 1 1 0 0 0 0 0 0 0 1 1 0 0 0 0 0 0 0 0 0 0 0 0 0 0 0 0 0 0 0
0 1 0 1 1 0 0 0 1 1 1 1 1 1 1 0 0 0 0 0 0 0 0 1 1 1 0 0 0 0 0 0 0 0 0 0 0 0 0 0 0 0 0
0 0 0 1 1 0 0 0 0 0 0 0 0 0 0 0 0 0 0 0 0 0 0 0 0 0 0 0 0 0 0 0 0 0 0 0 0 0 0 0 1 0 0
0 0 0 0 0 0 0 0 0 0 0 0 0 0 0 0 0 0 0 0 0 0 0 0 0 0 0 0 0 0 0 0 0 0 0 0 0 0 0 0 0 0 1
0 0 0 0 0 0 0 0 0 0 0 0 0 0 0 0 0 0 0 0 0 0 0 0 0 0 0 0 0 0 0 0 0 0 0 0 0 0 0 0 0 0 0
0 0 0 0 0 0 0 0 0 0 0 0 0 0 0 0 0 0 0 0 0 0 0 0 0 0 0 0 0 0 0 0 0 0 0 0 0 0 0 0 0 0 0
0 0 0 0 0 0 0 0 0 0 0 0 0 0 0 0 0 0 0 0 0 0 0 0 0 0 0 0 0 0 0 0 0 0 0 0 0 0 0 0 0 0 0
0 0 0 0 0 0 0 0 0 0 0 0 0 0 0 0 0 0 0 0 0 0 0 0 0 0 0 0 0 0 0 0 0 0 0 0 0 0 0 0 0 0 0
0 0 0 0 0 0 0 0 0 0 0 0 0 0 0 0 0 0 0 0 0 0 0 0 0 0 0 0 0 0 0 0 0 0 0 0 0 0 0 0 0 0 0
0 0 0 0 0 0 0 0 0 0 0 0 0 0 0 0 0 0 0 0 0 0 0 0 0 0 0 0 0 0 0 0 0 0 0 0 0 0 0 0 0 0 0
0 0 0 0 0 0 0 0 0 0 0 0 0 0 0 0 0 0 0 0 -0 -0 0 0 0 0 0 0 0 0 0 0 0 0 0 0 0 0 0 0 0 0 0
0 0 0 0 0 0 0 0 0 0 0 0 0 0 0 0 0 0 0 0 0 0 0 0 0 0 0 0 0 0 0 0 0 0 0 0 0 0 0 0 0 0 0
0 0 0 0 0 0 0 0 0 0 0 0 0 0 0 0 0 0 0 0 0 0 0 0 0 0 0 0 0 0 0 0 0 0 0 0 0 0 0 0 0 0 0
0 0 0 0 0 0 0 0 0 0 0 0 0 0 0 0 0 0 0 0 0 0 0 0 0 0 0 0 0 0 0 0 0 0 0 0 0 0 0 0 0 0 0
0 0 0 0 0 0 0 0 0 0 0 0 0 0 0 0 0 0 0 0 0 0 0 0 0 0 0 0 0 0 0 0 0 0 0 0 0 0 0 0 0 0 0
0 0 0 0 0 0 0 0 0 0 0 0 0 0 0 0 0 0 0 0 0 0 0 0 0 0 0 0 0 0 0 0 0 0 0 0 0 0 0 0 0 0 0
0 0 0 0 0 0 0 0 0 0 0 0 0 0 0 0 0 0 0 0 0 0 0 0 0 0 0 0 0 0 0 0 0 0 0 0 0 0 0 0 0 0 0
0 0 0 0 0 0 0 0 0 0 0 0 0 0 0 0 0 0 0 0 0 0 0 0 0 0 0 0 0 0 0 0 0 0 0 0 0 0 0 0 0 0 0
0 0 0 0 0 0 0 0 0 0 0 0 0 0 0 0 0 0 0 0 0 0 0 0 0 0 0 0 0 0 0 0 0 0 0 0 0 0 0 0 0 0 0
0 0 0 0 0 0 0 0 0 0 0 0 0 0 0 0 0 0 0 0 0 0 0 0 0 0 0 0 0 0 0 0 0 0 0 0 0 0 0 0 0 0 0
Wind_Speed_500mb
36 35 33 31 29 31 30 30 32 28 28 30 26 23 21 21 21 22 20 19 16 14 13 15 15 18 14 15 18 15 16 16 15 8 8 12 4 3 1 6 10 7 23
34 35 34 32 31 31 33 31 28 31 31 30 27 27 25 24 22 23 25 18 20 17 16 16 16 12 17 13 10 16 14 15 14 16 15 11 9 7 8 8 8 13 11
36 34 35 34 33 33 33 33 35 32 32 30 31 28 25 25 23 21 23 22 21 20 18 16 14 16 16 13 13 14 12 13 13 12 13 10 11 13 10 12 9 8 6
36 38 36 36 34 31 30 31 30 33 34 30 29 24 25 24 22 21 19 17 20 19 23 22 18 18 20 20 20 20 15 14 12 10 12 14 13 13 12 9 8 5 4
39 40 40 43 36 32 29 27 26 28 27 29 30 27 25 28 22 22 19 19 18 21 21 21 19 26 21 23 18 20 21 18 15 17 15 12 12 11 8 8 9 9 3
46 44 44 33 39 37 33 29 28 28 28 27 26 24 19 23 24 25 28 30 29 28 22 22 22 26 26 24 28 27 26 20 19 16 20 13 13 10 14 10 12 15 14
42 42 39 40 36 36 37 37 30 28 24 24 24 25 25 23 23 25 24 27 30 34 33 26 22 21 23 28 30 28 27 27 25 23 17 15 17 14 17 18 19 12 10
31 31 34 37 46 54 47 39 34 28 29 25 25 25 27 31 30 29 27 28 26 27 37 41 32 29 29 26 19 25 26 24 22 19 24 25 27 28 26 15 17 19 10
19 20 22 28 35 41 42 46 49 38 27 34 33 32 29 28 21 18 19 26 26 20 27 35 39 40 41 34 33 28 21 20 20 24 25 25 22 19 15 13 8 7 9
11 11 11 16 15 16 17 18 24 19 16 11 17 19 21 23 22 28 26 23 20 22 22 22 30 33 34 34 33 32 20 21 20 17 14 12 10 10 12 15 6 5 2
9 11 13 8 5 10 16 16 14 23 19 29 35 35 37 39 47 46 40 27 19 16 18 26 29 28 27 24 20 22 24 22 15 8 6 7 5 9 9 10 11 11 1
12 16 13 6 5 5 6 5 11 11 16 18 22 22 21 21 21 20 23 21 15 19 26 28 31 34 31 28 23 17 17 18 22 24 18 14 8 4 9 11 13 13 13
13 10 8 7 7 5 4 4 8 7 6 7 4 5 4 0 3 4 2 17 16 16 20 23 24 21 22 23 24 24 31 32 24 20 14 9 8 8 8 8 9 10 11
14 15 15 13 10 10 8 13 11 12 11 10 7 8 10 10 10 15 16 15 12 6 5 7 8 10 8 11 19 21 21 21 19 13 9 8 7 7 9 10 11 11 5
16 17 17 15 13 10 6 4 6 7 8 7 8 8 9 9 12 13 13 12 15 16 15 14 15 15 14 17 19 21 19 19 19 19 16 14 12 10 13 15 11 9 6
15 14 12 11 10 8 8 4 2 1 2 4 6 8 12 16 17 15 13 11 13 18 20 22 23 19 18 19 15 12 9 7 8 7 9 12 19 26 25 15 16 13 13
15 16 13 12 12 12 11 10 9 11 10 10 8 5 7 12 18 19 17 15 14 21 13 15 18 10 11 11 8 2 3 4 6 8 4 6 10 6 6 8 11 10 9
18 18 16 14 11 11 10 11 10 8 6 4 3 4 8 12 11 13 16 18 17 18 17 11 10 13 9 2 1 3 5 3 5 7 7 7 9 8 6 5 8 8 9
13 12 13 12 12 12 12 12 10 12 12 10 10 9 9 11 13 14 16 12 9 10 11 12 11 7 5 6 8 8 7 7 7 6 5 3 1 1 1 1 8 9 9
8 10 10 8 7 9 9 10 10 6 7 7 7 8 10 8 6 7 9 9 8 6 6 7 8 11 13 15 16 16 15 12 7 2 4 4 1 1 1 4 7 8 9
6 7 11 8 8 7 8 8 6 5 4 4 6 11 12 8 7 6 6 7 8 6 9 9 11 13 14 11 7 8 7 6 6 6 4 4 4 5 12 12 10 8 10
9 9 10 12 14 13 13 13 12 12 11 11 10 10 9 10 11 11 9 7 6 7 9 12 10 10 13 13 15 16 11 8 8 6 6 4 5 4 5 8 8 11 13
17 17 16 17 20 20 20 18 18 18 17 17 19 17 12 14 12 11 10 8 9 9 9 8 9 10 9 7 6 4 4 5 5 3 2 1 3 5 7 7 10 11 11
22 24 24 23 24 24 23 23 21 23 19 19 20 22 19 19 19 18 18 17 16 15 15 14 14 13 11 10 8 8 9 8 3 3 5 4 4 9 6 6 9 11 12
23 26 27 27 27 27 28 28 26 23 22 22 23 23 22 23 23 24 24 25 26 24 23 21 20 20 18 15 13 12 16 7 5 2 4 3 1 6 5 8 10 12 15
22 26 28 30 29 29 29 30 29 25 26 26 22 22 28 24 24 24 25 28 29 31 32 30 29 28 26 26 23 25 23 20 16 13 11 10 11 12 13 15 18 18 20
Wind_Direction_500mb
216 218 221 225 228 230 230 235 243 248 248 242 247 243 245 240 248 256 246 251 260 262 275 281 275 283 290 289 300 301 296 300 291 298 295 310 339 52 20 42 1 10 335
214 217 223 228 230 230 233 238 245 253 249 248 250 250 244 246 255 250 250 250 267 266 265 276 280 278 284 298 294 289 289 290 274 286 271 283 282 320 321 355 13 330 335
214 218 224 227 231 235 232 242 248 250 254 249 254 254 250 250 253 260 256 253 256 267 258 272 278 274 283 272 290 280 296 301 296 281 274 289 283 278 297 322 1 18 286
220 222 224 230 228 234 240 237 243 248 251 252 254 256 257 248 254 256 247 246 252 250 254 266 266 279 270 283 276 269 291 272 289 293 269 267 273 274 278 294 296 280 172
235 240 233 241 243 240 240 240 246 243 248 250 253 261 259 254 249 248 248 255 254 256 257 260 275 263 262 270 278 266 267 277 274 277 277 274 269 259 296 267 276 234 238
241 250 241 243 244 246 247 253 250 248 253 253 251 252 263 266 262 260 262 266 266 261 251 252 264 278 267 267 268 275 285 275 271 260 259 279 283 287 279 263 263 251 213
250 252 250 258 250 249 253 248 249 246 246 246 244 251 256 259 259 257 260 261 263 261 255 258 257 256 270 274 278 255 259 268 271 270 264 267 276 275 267 270 261 247 208
244 252 254 244 240 243 235 228 240 246 234 234 240 237 249 258 257 263 266 265 265 257 245 242 251 264 260 256 261 257 259 264 271 236 267 271 279 275 273 265 250 225 206
224 224 231 231 229 231 233 243 246 242 235 236 234 242 239 251 252 267 281 270 270 285 258 242 237 238 247 263 250 254 265 265 267 271 275 277 273 265 248 216 233 231 194
205 214 220 228 240 239 231 217 212 204 185 229 236 225 234 250 257 271 271 271 272 282 284 262 242 249 258 254 251 226 248 264 267 269 260 251 242 224 210 212 168 294 259
156 178 166 153 170 235 238 237 248 234 262 274 265 262 274 275 278 279 268 250 230 248 248 235 229 234 243 233 225 235 239 255 256 224 126 94 130 190 206 226 242 245 41
121 154 154 143 204 182 193 244 255 252 261 257 245 254 263 268 272 274 255 227 228 225 243 248 244 227 220 221 214 208 214 204 177 182 183 182 173 227 251 262 269 269 263
139 168 168 161 143 135 120 148 159 164 175 165 174 179 187 54 3 358 226 223 228 226 233 237 242 244 241 238 235 201 189 188 183 190 196 230 269 291 305 323 309 305 299
124 126 123 114 108 101 117 126 119 102 62 83 92 101 92 92 55 39 47 53 70 111 228 256 254 255 243 211 180 179 180 171 170 173 160 126 87 40 25 12 355 355 12
123 125 136 127 133 127 120 110 125 119 115 98 99 96 88 64 45 45 49 67 81 84 94 107 107 102 116 147 157 152 151 134 120 109 102 91 79 47 32 23 29 19 24
118 121 120 118 111 112 115 133 172 260 26 55 61 59 61 62 52 48 56 68 87 95 105 116 117 119 130 134 135 146 158 211 237 245 274 288 298 302 299 293 304 305 291
114 110 104 100 100 86 83 85 85 86 84 84 84 75 64 67 81 88 87 88 96 98 127 140 127 124 147 137 133 167 212 244 294 313 278 236 253 286 313 3 13 28 356
107 107 99 97 100 106 108 104 98 97 84 51 61 78 92 99 103 99 93 93 109 124 138 140 142 132 153 221 340 16 358 355 37 30 18 13 17 21 33 42 14 12 10
110 115 107 106 113 119 117 115 120 110 107 101 99 115 127 127 116 113 108 98 113 121 138 146 150 132 114 91 77 67 75 82 71 50 9 360 357 113 297 37 312 318 4
147 163 139 144 135 134 132 134 141 129 131 143 139 162 162 132 100 99 117 104 90 108 170 174 180 178 191 196 187 179 174 172 170 234 241 241 184 55 315 356 341 345 348
175 200 197 190 202 211 210 203 193 186 190 187 182 189 191 165 195 193 196 237 230 219 211 196 217 225 226 226 211 216 228 230 246 241 240 242 254 280 293 298 314 334 339
218 236 237 218 225 235 225 225 229 238 245 233 219 247 221 192 220 225 224 229 225 212 233 230 216 216 238 236 237 242 233 220 246 237 241 249 291 304 354 3 353 345 353
243 244 247 240 233 230 227 225 233 235 234 236 228 226 242 215 220 222 224 219 221 210 226 227 222 219 215 196 206 236 179 202 210 207 205 74 50 31 22 6 350 348 338
250 250 250 249 242 235 235 232 232 232 227 231 222 220 226 224 225 233 231 233 225 216 213 206 202 197 208 195 197 187 176 179 161 92 101 101 75 32 30 356 342 332 338
248 254 253 250 242 243 235 232 231 232 233 228 225 225 231 230 235 239 241 239 239 232 227 218 213 211 219 220 206 197 220 218 177 160 44 23 342 333 309 317 310 322 322
253 255 256 251 247 241 236 232 233 234 234 225 220 233 231 236 240 240 245 247 247 241 233 231 227 221 221 230 224 225 245 246 246 248 242 246 254 262 275 288 292 298 301
Wind_Speed_850mb
36 35 33 31 29 31 30 30 32 28 28 30 26 23 21 21 21 22 20 19 16 14 13 15 15 18 14 15 18 15 16 16 15 8 8 12 4 3 1 6 10 7 23
34 35 34 32 31 31 33 31 28 31 31 30 27 27 25 24 22 23 25 18 20 17 16 16 16 12 17 13 10 16 14 15 14 16 15 11 9 7 8 8 8 13 11
36 34 35 34 33 33 33 33 35 32 32 30 31 28 25 25 23 21 23 22 21 20 18 16 14 16 16 13 13 14 12 13 13 12 13 10 11 13 10 12 9 8 6
36 38 36 36 34 31 30 31 30 33 34 30 29 24 25 24 22 21 19 17 20 19 23 22 18 18 20 20 20 20 15 14 12 10 12 14 13 13 12 9 8 5 4
39 40 40 43 36 32 29 27 26 28 27 29 30 27 25 28 22 22 19 19 18 21 21 21 19 26 21 23 18 20 21 18 15 17 15 12 12 11 8 8 9 9 3
46 44 44 33 39 37 33 29 28 28 28 27 26 24 19 23 24 25 28 30 29 28 22 22 22 26 26 24 28 27 26 20 19 16 20 13 13 10 14 10 12 15 14
42 42 39 40 36 36 37 37 30 28 24 24 24 25 25 23 23 25 24 27 30 34 33 26 22 21 23 28 30 28 27 27 25 23 17 15 17 14 17 18 19 12 10
31 31 34 37 46 54 47 39 34 28 29 25 25 25 27 31 30 29 27 28 26 27 37 41 32 29 29 26 19 25 26 24 22 19 24 25 27 28 26 15 17 19 10
19 20 22 28 35 41 42 46 49 38 27 34 33 32 29 28 21 18 19 26 26 20 27 35 39 40 41 34 33 28 21 20 20 24 25 25 22 19 15 13 8 7 9
11 11 11 16 15 16 17 18 24 19 16 11 17 19 21 23 22 28 26 23 20 22 22 22 30 33 34 34 33 32 20 21 20 17 14 12 10 10 12 15 6 5 2
9 11 13 8 5 10 16 16 14 23 19 29 35 35 37 39 47 46 40 27 19 16 18 26 29 28 27 24 20 22 24 22 15 8 6 7 5 9 9 10 11 11 1
12 16 13 6 5 5 6 5 11 11 16 18 22 22 21 21 21 20 23 21 15 19 26 28 31 34 31 28 23 17 17 18 22 24 18 14 8 4 9 11 13 13 13
13 10 8 7 7 5 4 4 8 7 6 7 4 5 4 0 3 4 2 17 16 16 20 23 24 21 22 23 24 24 31 32 24 20 14 9 8 8 8 8 9 10 11
14 15 15 13 10 10 8 13 11 12 11 10 7 8 10 10 10 15 16 15 12 6 5 7 8 10 8 11 19 21 21 21 19 13 9 8 7 7 9 10 11 11 5
16 17 17 15 13 10 6 4 6 7 8 7 8 8 9 9 12 13 13 12 15 16 15 14 15 15 14 17 19 21 19 19 19 19 16 14 12 10 13 15 11 9 6
15 14 12 11 10 8 8 4 2 1 2 4 6 8 12 16 17 15 13 11 13 18 20 22 23 19 18 19 15 12 9 7 8 7 9 12 19 26 25 15 16 13 13
15 16 13 12 12 12 11 10 9 11 10 10 8 5 7 12 18 19 17 15 14 21 13 15 18 10 11 11 8 2 3 4 6 8 4 6 10 6 6 8 11 10 9
18 18 16 14 11 11 10 11 10 8 6 4 3 4 8 12 11 13 16 18 17 18 17 11 10 13 9 2 1 3 5 3 5 7 7 7 9 8 6 5 8 8 9
13 12 13 12 12 12 12 12 10 12 12 10 10 9 9 11 13 14 16 12 9 10 11 12 11 7 5 6 8 8 7 7 7 6 5 3 1 1 1 1 8 9 9
8 10 10 8 7 9 9 10 10 6 7 7 7 8 10 8 6 7 9 9 8 6 6 7 8 11 13 15 16 16 15 12 7 2 4 4 1 1 1 4 7 8 9
6 7 11 8 8 7 8 8 6 5 4 4 6 11 12 8 7 6 6 7 8 6 9 9 11 13 14 11 7 8 7 6 6 6 4 4 4 5 12 12 10 8 10
9 9 10 12 14 13 13 13 12 12 11 11 10 10 9 10 11 11 9 7 6 7 9 12 10 10 13 13 15 16 11 8 8 6 6 4 5 4 5 8 8 11 13
17 17 16 17 20 20 20 18 18 18 17 17 19 17 12 14 12 11 10 8 9 9 9 8 9 10 9 7 6 4 4 5 5 3 2 1 3 5 7 7 10 11 11
22 24 24 23 24 24 23 23 21 23 19 19 20 22 19 19 19 18 18 17 16 15 15 14 14 13 11 10 8 8 9 8 3 3 5 4 4 9 6 6 9 11 12
23 26 27 27 27 27 28 28 26 23 22 22 23 23 22 23 23 24 24 25 26 24 23 21 20 20 18 15 13 12 16 7 5 2 4 3 1 6 5 8 10 12 15
22 26 28 30 29 29 29 30 29 25 26 26 22 22 28 24 24 24 25 28 29 31 32 30 29 28 26 26 23 25 23 20 16 13 11 10 11 12 13 15 18 18 20
Wind_Direction_850mb
216 218 221 225 228 230 230 235 243 248 248 242 247 243 245 240 248 256 246 251 260 262 275 281 275 283 290 289 300 301 296 300 291 298 295 310 339 52 20 42 1 10 335
214 217 223 228 230 230 233 238 245 253 249 248 250 250 244 246 255 250 250 250 267 266 265 276 280 278 284 298 294 289 289 290 274 286 271 283 282 320 321 355 13 330 335
214 218 224 227 231 235 232 242 248 250 254 249 254 254 250 250 253 260 256 253 256 267 258 272 278 274 283 272 290 280 296 301 296 281 274 289 283 278 297 322 1 18 286
220 222 224 230 228 234 240 237 243 248 251 252 254 256 257 248 254 256 247 246 252 250 254 266 266 279 270 283 276 269 291 272 289 293 269 267 273 274 278 294 296 280 172
235 240 233 241 243 240 240 240 246 243 248 250 253 261 259 254 249 248 248 255 254 256 257 260 275 263 262 270 278 266 267 277 274 277 277 274 269 259 296 267 276 234 238
241 250 241 243 244 246 247 253 250 248 253 253 251 252 263 266 262 260 262 266 266 261 251 252 264 278 267 267 268 275 285 275 271 260 259 279 283 287 279 263 263 251 213
250 252 250 258 250 249 253 248 249 246 246 246 244 251 256 259 259 257 260 261 263 261 255 258 257 256 270 274 278 255 259 268 271 270 264 267 276 275 267 270 261 247 208
244 252 254 244 240 243 235 228 240 246 234 234 240 237 249 258 257 263 266 265 265 257 245 242 251 264 260 256 261 257 259 264 271 236 267 271 279 275 273 265 250 225 206
224 224 231 231 229 231 233 243 246 242 235 236 234 242 239 251 252 267 281 270 270 285 258 242 237 238 247 263 250 254 265 265 267 271 275 277 273 265 248 216 233 231 194
205 214 220 228 240 239 231 217 212 204 185 229 236 225 234 250 257 271 271 271 272 282 284 262 242 249 258 254 251 226 248 264 267 269 260 251 242 224 210 212 168 294 259
156 178 166 153 170 235 238 237 248 234 262 274 265 262 274 275 278 279 268 250 230 248 248 235 229 234 243 233 225 235 239 255 256 224 126 94 130 190 206 226 242 245 41
121 154 154 143 204 182 193 244 255 252 261 257 245 254 263 268 272 274 255 227 228 225 243 248 244 227 220 221 214 208 214 204 177 182 183 182 173 227 251 262 269 269 263
139 168 168 161 143 135 120 148 159 164 175 165 174 179 187 54 3 358 226 223 228 226 233 237 242 244 241 238 235 201 189 188 183 190 196 230 269 291 305 323 309 305 299
124 126 123 114 108 101 117 126 119 102 62 83 92 101 92 92 55 39 47 53 70 111 228 256 254 255 243 211 180 179 180 171 170 173 160 126 87 40 25 12 355 355 12
123 125 136 127 133 127 120 110 125 119 115 98 99 96 88 64 45 45 49 67 81 84 94 107 107 102 116 147 157 152 151 134 120 109 102 91 79 47 32 23 29 19 24
118 121 120 118 111 112 115 133 172 260 26 55 61 59 61 62 52 48 56 68 87 95 105 116 117 119 130 134 135 146 158 211 237 245 274 288 298 302 299 293 304 305 291
114 110 104 100 100 86 83 85 85 86 84 84 84 75 64 67 81 88 87 88 96 98 127 140 127 124 147 137 133 167 212 244 294 313 278 236 253 286 313 3 13 28 356
107 107 99 97 100 106 108 104 98 97 84 51 61 78 92 99 103 99 93 93 109 124 138 140 142 132 153 221 340 16 358 355 37 30 18 13 17 21 33 42 14 12 10
110 115 107 106 113 119 117 115 120 110 107 101 99 115 127 127 116 113 108 98 113 121 138 146 150 132 114 91 77 67 75 82 71 50 9 360 357 113 297 37 312 318 4
147 163 139 144 135 134 132 134 141 129 131 143 139 162 162 132 100 99 117 104 90 108 170 174 180 178 191 196 187 179 174 172 170 234 241 241 184 55 315 356 341 345 348
175 200 197 190 202 211 210 203 193 186 190 187 182 189 191 165 195 193 196 237 230 219 211 196 217 225 226 226 211 216 228 230 246 241 240 242 254 280 293 298 314 334 339
218 236 237 218 225 235 225 225 229 238 245 233 219 247 221 192 220 225 224 229 225 212 233 230 216 216 238 236 237 242 233 220 246 237 241 249 291 304 354 3 353 345 353
243 244 247 240 233 230 227 225 233 235 234 236 228 226 242 215 220 222 224 219 221 210 226 227 222 219 215 196 206 236 179 202 210 207 205 74 50 31 22 6 350 348 338
250 250 250 249 242 235 235 232 232 232 227 231 222 220 226 224 225 233 231 233 225 216 213 206 202 197 208 195 197 187 176 179 161 92 101 101 75 32 30 356 342 332 338
248 254 253 250 242 243 235 232 231 232 233 228 225 225 231 230 235 239 241 239 239 232 227 218 213 211 219 220 206 197 220 218 177 160 44 23 342 333 309 317 310 322 322
253 255 256 251 247 241 236 232 233 234 234 225 220 233 231 236 240 240 245 247 247 241 233 231 227 221 221 230 224 225 245 246 246 248 242 246 254 262 275 288 292 298 301